• In Czech Republic
  • List of Countries
  • For 7 days
  • Water Temperature
  • Satellite Maps
  • Weather Map
  • Weather Widgets
  • user-avatar
    Login

    Hourly Weather Hamilton

    Today, 20 February, Tuesday

    Time Temperature Precipitation Wind Pressure Humidity
    00:00 +8°C° 0.5 mm 6 mps 747 mmHg 98%
    01:00 +8°C° 0.5 mm 6 mps 747 mmHg 98%
    02:00 +8°C° 0.8 mm 6 mps 747 mmHg 98%
    03:00 +8°C° 0.8 mm 6 mps 747 mmHg 98%
    04:00 +8°C° 0.8 mm 6 mps 747 mmHg 98%
    05:00 +8°C° 4.6 mm 6 mps 747 mmHg 97%
    06:00 +9°C° 4.6 mm 6 mps 747 mmHg 96%
    07:00 +9°C° 4.6 mm 6 mps 747 mmHg 96%
    08:00 +9°C° 3.6 mm 6 mps 747 mmHg 95%
    09:00 +10°C° 3.6 mm 7 mps 747 mmHg 95%
    10:00 +10°C° 3.6 mm 7 mps 747 mmHg 94%
    11:00 +11°C° 0.5 mm 7 mps 747 mmHg 93%
    12:00 +11°C° 0.5 mm 8 mps 747 mmHg 93%
    13:00 +12°C° 0.5 mm 8 mps 748 mmHg 92%
    14:00 +12°C° 0.3 mm 8 mps 748 mmHg 92%
    15:00 +12°C° 0.3 mm 7 mps 748 mmHg 93%
    16:00 +12°C° 0.3 mm 7 mps 748 mmHg 93%
    17:00 +11°C° 0.3 mm 7 mps 749 mmHg 93%
    18:00 +11°C° 0.3 mm 6 mps 749 mmHg 94%
    19:00 +12°C° 0.3 mm 5 mps 749 mmHg 94%
    20:00 +11°C° 0.3 mm 6 mps 749 mmHg 93%
    21:00 +13°C° 0.3 mm 6 mps 749 mmHg 91%
    22:00 +13°C° 0.3 mm 6 mps 749 mmHg 90%
    23:00 +12°C° 0 mm 7 mps 749 mmHg 89%

    Tomorrow, 21 February, Wednesday

    Time Temperature Precipitation Wind Pressure Humidity
    00:00 +14°C° 0 mm 7 mps 748 mmHg 89%
    01:00 +13°C° 0 mm 8 mps 748 mmHg 88%
    02:00 +13°C° 0.1 mm 8 mps 748 mmHg 89%
    03:00 +13°C° 0.1 mm 8 mps 748 mmHg 90%
    04:00 +13°C° 0.1 mm 8 mps 748 mmHg 91%
    05:00 +13°C° 0.6 mm 8 mps 748 mmHg 91%
    06:00 +13°C° 0.6 mm 8 mps 748 mmHg 92%
    07:00 +13°C° 0.6 mm 9 mps 748 mmHg 92%
    08:00 +12°C° 0.7 mm 8 mps 749 mmHg 91%
    09:00 +10°C° 0.7 mm 7 mps 749 mmHg 89%
    10:00 +8°C° 0.7 mm 7 mps 750 mmHg 88%
    11:00 +6°C° 0.3 mm 7 mps 752 mmHg 84%
    12:00 +4°C° 0.3 mm 7 mps 753 mmHg 81%
    13:00 +2°C° 0.3 mm 7 mps 755 mmHg 77%
    14:00 +2°C° 0.1 mm 6 mps 756 mmHg 72%
    15:00 +1°C° 0.1 mm 6 mps 757 mmHg 67%
    16:00 -1°C° 0.1 mm 6 mps 758 mmHg 63%
    17:00 0°C° 0 mm 5 mps 759 mmHg 63%
    18:00 -1°C° 0 mm 4 mps 760 mmHg 63%
    19:00 -1°C° 0 mm 4 mps 761 mmHg 64%
    20:00 -2°C° 0 mm 4 mps 762 mmHg 64%
    21:00 -1°C° 0 mm 3 mps 762 mmHg 64%
    22:00 -2°C° 0 mm 3 mps 763 mmHg 63%
    23:00 -2°C° 0 mm 3 mps 763 mmHg 63%

    Day after tomorrow, 22 February, Thursday

    Time Temperature Precipitation Wind Pressure Humidity
    00:00 -2°C° 0 mm 3 mps 763 mmHg 62%
    01:00 -2°C° 0 mm 3 mps 763 mmHg 61%
    02:00 -2°C° 0 mm 3 mps 763 mmHg 60%
    03:00 -2°C° 0 mm 3 mps 763 mmHg 60%
    04:00 -2°C° 0 mm 3 mps 763 mmHg 60%
    05:00 -2°C° 0 mm 3 mps 764 mmHg 60%
    06:00 -2°C° 0 mm 3 mps 764 mmHg 61%
    07:00 -2°C° 0 mm 3 mps 764 mmHg 61%
    08:00 -2°C° 0 mm 3 mps 764 mmHg 60%
    09:00 -3°C° 0 mm 4 mps 764 mmHg 59%
    10:00 -3°C° 0 mm 4 mps 765 mmHg 58%
    11:00 -2°C° 0 mm 4 mps 765 mmHg 55%
    12:00 0°C° 0 mm 3 mps 765 mmHg 53%
    13:00 0°C° 0 mm 3 mps 765 mmHg 51%
    14:00 0°C° 0 mm 3 mps 764 mmHg 52%
    15:00 0°C° 0 mm 4 mps 764 mmHg 53%
    16:00 0°C° 0 mm 4 mps 764 mmHg 53%
    17:00 -1°C° 0 mm 4 mps 764 mmHg 58%
    18:00 -2°C° 0 mm 4 mps 764 mmHg 62%
    19:00 -3°C° 0 mm 4 mps 764 mmHg 67%
    20:00 -3°C° 0 mm 4 mps 764 mmHg 65%
    21:00 -3°C° 0 mm 4 mps 764 mmHg 64%
    22:00 -3°C° 0 mm 4 mps 764 mmHg 62%
    23:00 -3°C° 0 mm 4 mps 763 mmHg 60%

    23 February, Friday

    Time Temperature Precipitation Wind Pressure Humidity
    00:00 -4°C° 0 mm 5 mps 763 mmHg 57%
    01:00 -4°C° 0 mm 5 mps 762 mmHg 54%
    02:00 -4°C° 0 mm 5 mps 761 mmHg 54%
    03:00 -4°C° 0 mm 5 mps 760 mmHg 54%
    04:00 -4°C° 0 mm 5 mps 760 mmHg 53%
    05:00 -4°C° 0 mm 5 mps 759 mmHg 55%
    06:00 -4°C° 0 mm 5 mps 759 mmHg 58%
    07:00 -4°C° 0 mm 5 mps 758 mmHg 60%
    08:00 -2°C° 0.1 mm 5 mps 757 mmHg 64%
    09:00 -2°C° 0.1 mm 4 mps 756 mmHg 68%
    10:00 -2°C° 0.1 mm 4 mps 756 mmHg 72%
    11:00 -1°C° 0.1 mm 4 mps 755 mmHg 74%
    12:00 0°C° 0.1 mm 3 mps 754 mmHg 77%
    13:00 +1°C° 0.1 mm 3 mps 752 mmHg 80%
    14:00 +1°C° 0.6 mm 2 mps 752 mmHg 84%
    15:00 +1°C° 0.6 mm 2 mps 751 mmHg 87%
    16:00 +2°C° 0.6 mm 1 mps 751 mmHg 91%
    17:00 +2°C° 0.4 mm 1 mps 751 mmHg 92%
    18:00 +2°C° 0.4 mm 1 mps 751 mmHg 93%
    19:00 +2°C° 0.4 mm 1 mps 751 mmHg 94%
    20:00 +2°C° 0 mm 1 mps 751 mmHg 94%
    21:00 +1°C° 0 mm 2 mps 751 mmHg 95%
    22:00 +1°C° 0 mm 2 mps 751 mmHg 95%
    23:00 +1°C° 0 mm 2 mps 751 mmHg 95%

    24 February, Saturday

    Time Temperature Precipitation Wind Pressure Humidity
    00:00 +1°C° 0 mm 2 mps 751 mmHg 95%
    01:00 +1°C° 0 mm 2 mps 751 mmHg 95%
    02:00 +1°C° 0 mm 2 mps 751 mmHg 95%
    03:00 +1°C° 0 mm 2 mps 751 mmHg 94%
    04:00 +1°C° 0 mm 2 mps 751 mmHg 94%
    05:00 +2°C° 0 mm 1 mps 751 mmHg 94%
    06:00 +2°C° 0 mm 1 mps 751 mmHg 94%
    07:00 +1°C° 0 mm 1 mps 751 mmHg 94%
    08:00 +2°C° 0 mm 1 mps 751 mmHg 90%
    09:00 +2°C° 0 mm 2 mps 751 mmHg 87%
    10:00 +1°C° 0 mm 3 mps 751 mmHg 84%
    11:00 +2°C° 0 mm 3 mps 750 mmHg 82%
    12:00 +2°C° 0 mm 3 mps 750 mmHg 81%
    13:00 +2°C° 0 mm 3 mps 750 mmHg 79%
    14:00 +2°C° 0.1 mm 3 mps 749 mmHg 81%
    15:00 0°C° 0.1 mm 4 mps 749 mmHg 83%
    16:00 0°C° 0.1 mm 4 mps 748 mmHg 85%
    17:00 0°C° 0 mm 4 mps 748 mmHg 86%
    18:00 0°C° 0 mm 5 mps 748 mmHg 86%
    19:00 -1°C° 0 mm 5 mps 748 mmHg 87%
    20:00 -2°C° 0 mm 6 mps 747 mmHg 88%
    21:00 -2°C° 0 mm 6 mps 747 mmHg 89%
    22:00 -2°C° 0 mm 6 mps 746 mmHg 90%
    23:00 -1°C° 0 mm 7 mps 745 mmHg 90%

    25 February, Sunday

    Time Temperature Precipitation Wind Pressure Humidity
    00:00 -1°C° 0 mm 7 mps 744 mmHg 91%
    01:00 -1°C° 0 mm 7 mps 743 mmHg 91%
    02:00 -1°C° 0.3 mm 7 mps 742 mmHg 92%
    03:00 -1°C° 0.3 mm 8 mps 740 mmHg 93%
    04:00 0°C° 0.3 mm 8 mps 739 mmHg 94%
    05:00 0°C° 1.8 mm 7 mps 737 mmHg 95%
    06:00 +2°C° 1.8 mm 7 mps 735 mmHg 96%
    07:00 +3°C° 1.8 mm 7 mps 733 mmHg 97%
    08:00 +5°C° 3 mm 7 mps 732 mmHg 96%
    09:00 +7°C° 3 mm 8 mps 730 mmHg 94%
    10:00 +10°C° 3 mm 8 mps 729 mmHg 93%
    11:00 +8°C° 0.6 mm 11 mps 729 mmHg 85%
    12:00 +7°C° 0.6 mm 13 mps 730 mmHg 77%
    13:00 +5°C° 0.6 mm 15 mps 730 mmHg 69%
    14:00 +4°C° 0.1 mm 15 mps 731 mmHg 69%
    15:00 +3°C° 0.1 mm 14 mps 732 mmHg 70%
    16:00 +3°C° 0.1 mm 14 mps 733 mmHg 71%
    17:00 +1°C° 0.1 mm 14 mps 735 mmHg 70%
    18:00 +1°C° 0.1 mm 13 mps 737 mmHg 69%
    19:00 +1°C° 0.1 mm 13 mps 738 mmHg 68%
    20:00 0°C° 0 mm 12 mps 740 mmHg 69%
    21:00 -1°C° 0 mm 11 mps 742 mmHg 70%
    22:00 0°C° 0 mm 10 mps 743 mmHg 71%
    23:00 -1°C° 0 mm 9 mps 744 mmHg 73%
    Show more